World > North America > United States > Arkansas > Tontitown

Hourly Tontitown, AR Regional Weather

Feedback E-mail the Weather

Quick WX

Tontitown, AR Weather Maps

°F °C°F °C
Tontitown Weather Map
UTC Time: 8/10/2022, 01:26
Your Time:

Tontitown, AR Regional Weather

Expires:202208100200;;763762
ASUS44 KLZK 100110
RWRLZK

WEATHER ROUNDUP FOR ARKANSAS
NATIONAL WEATHER SERVICE LITTLE ROCK AR
800 PM CDT TUE AUG 09 2022

NOTE: "FAIR" INDICATES FEW OR NO CLOUDS BELOW 12,000 FEET WITH NO
SIGNIFICANT WEATHER AND/OR OBSTRUCTIONS TO VISIBILITY.


ARZ001-010-029-103-100200-
NORTHWEST ARKANSAS
  
CITY           SKY/WX    TMP DP  RH WIND       PRES   REMARKS
FAYETTEVILLE   PTCLDY    79  72  79 NW3       30.05R                  
FORT SMITH     PTCLDY    84  72  67 W3        29.99R HX  89           
HARRISON       MOCLDY    79  69  71 SE7       30.06R                  
BENTONVILLE    CLOUDY    80  71  74 SE5       30.07R                  
ROGERS         PTCLDY    80  67  64 SE3       30.07R                  
SILOAM SPGS    CLOUDY    80  73  79 CALM      30.05R                  
HIGHFILL       CLOUDY    82  70  66 CALM      30.05R HX  86           
SPRINGDALE     MOCLDY    82  73  74 CALM      30.06R HX  88           
$$


SKY/WX - Weather  TMP - Temperature  DP - Dew Point  RH - Humidity
WIND - Wind Direction/Speed PRES - Barometric Pressure VSB - Visibility
WCI - Wind Chill Index E13G22 Wind - East Wind 13 mph/Gusts of 22 mph

Trending Headlines

Tontitown Radar Loop



Tontitown Quick Facts


National Two Day Weather Forecast


E-mail the Tontitown Weather Forecast

Voice your opinion or tell us about page issues...